www.pogodaiklimat.ru

Погода и климат >> Архив погоды >> Россия >> Томская область >> Томск


АРХИВ ПОГОДЫ в Томске

Время (UTC), дата Ветер
(напр.,м/с)
 
Видим.   Явления Облачность Т
(С)
Тd
(С)
f
(%)
Тe
(С)
Тes
(С)
Комфортность P
(гПа)
Po
(гПа)
Тmin
(С)
Tmax
(С)
R
(мм)
R24
(мм)
S
(см)
00 13.08 СВ 1 20 км ясно +8.8 +6.0 83 +8 +9 прохладно 1014.4 997.5 +8.6
03 13.08 штиль 0 20 км ясно +17.7 +7.6 52 +18 +27 тепло 1014.3 997.9
06 13.08 С 1 20 км 3/3 1000 м
[Cu med, cong]
+21.0 +5.9 37 +23 +33 комфорт 1013.0 996.8
09 13.08 штиль 0 20 км ясно +22.6 +5.3 32 +23 +34 комфорт 1011.5 995.4
12 13.08 штиль 0 20 км ясно +21.2 +4.3 33 +21 +23 комфорт 1011.2 995.0 +23.2
15 13.08 штиль 0 20 км ясно +14.4 +8.0 65 +14 +14 прохладно 1011.4 994.9
18 13.08 СВ 1 20 км ясно +13.4 +7.8 69 +14 +14 по сезону 1011.3 994.8
21 13.08 СВ 1 20 км ясно +11.5 +7.8 78 +11 +11 по сезону 1011.1 994.4
00 14.08 С 1 20 км ясно +10.4 +8.7 89 +10 +11 по сезону 1011.7 994.9 +10.2
03 14.08 С 1 20 км ясно +17.0 +10.7 66 +18 +26 тепло 1011.4 995.0
06 14.08 С 1 20 км ясно +20.2 +10.2 53 +23 +37 комфорт 1010.7 994.6
09 14.08 СВ 1 20 км ясно +22.5 +10.9 48 +25 +34 комфорт 1010.1 994.1
12 14.08 СВ 1 20 км 10/0
[Ci fib]
+21.2 +11.2 53 +23 +24 комфорт 1010.5 994.4 +22.8
15 14.08 штиль 0 20 км 10/0
[Ci fib]
+16.9 +11.5 70 +17 +17 по сезону 1010.9 994.6
18 14.08 С 1 20 км 10/0
[Ci fib]
+16.3 +11.0 71 +17 +17 тепло 1010.1 993.7
21 14.08 С 1 20 км 10/0
[Ci fib]
+14.2 +10.9 81 +15 +15 тепло 1010.3 993.8
00 15.08 СВ 1 20 км 6/0
[Ci fib]
+12.8 +10.7 87 +13 +13 по сезону 1009.9 993.3 +12.8
03 15.08 С 1 20 км ясно +18.0 +10.6 62 +19 +27 тепло 1010.1 993.8
06 15.08 штиль 0 20 км 3/0
[Ci fib]
+23.2 +9.9 43 +25 +40 комфорт 1009.5 993.5
09 15.08 С 1 20 км 5/0
[Ac trans Ci fib]
+24.5 +10.4 41 +26 +33 жарко 1009.2 993.3
12 15.08 штиль 0 20 км 3/0
[Ci fib]
+22.7 +11.6 49 +25 +27 комфорт 1009.6 993.6 +24.8
15 15.08 СВ 1 20 км 3/0
[Ci fib]
+18.3 +11.9 66 +20 +20 тепло 1009.8 993.5
18 15.08 СВ 1 20 км 4/0
[Ci fib]
+16.4 +12.0 75 +17 +17 тепло 1010.1 993.7
21 15.08 штиль 0 20 км ясно +14.1 +12.4 89 +14 +14 по сезону 1009.7 993.2
00 16.08 штиль 0 20 км 10/0
[Ac trans Ci fib]
+12.7 +11.8 94 +12 +13 по сезону 1009.7 993.1 +12.7
03 16.08 С 2 20 км 8/0
[Ci fib]
+18.1 +12.3 69 +19 +24 тепло 1008.9 992.6
06 16.08 С 1 20 км 10/0
[Ci fib]
+23.2 +13.7 55 +27 +37 душно 1007.9 992.0
09 16.08 С 2 20 км 10/3 1000 м
[Cu med, cong Cs]
+24.2 +13.1 50 +26 +31 жарко 1007.8 991.9
12 16.08 С 1 20 км 10/1 1000 м
[Sc diur, vesp Cs]
+22.4 +10.9 48 +24 +25 комфорт 1008.7 992.7 +24.7
15 16.08 штиль 0 20 км 10/0
[Ac trans Cs]
+17.6 +12.4 72 +18 +18 тепло 1009.8 993.5
18 16.08 С 1 20 км 10/6 1000 м
[Sc Ci fib]
+18.3 +12.3 68 +20 +20 тепло 1009.9 993.6
21 16.08 штиль 0 20 км 10/0
[Ac trans Ci fib]
+15.2 +12.6 84 +15 +15 тепло 1010.5 994.1
00 17.08 штиль 0 20 км 4/0
[Ci sp]
+14.2 +12.9 92 +14 +14 тепло 1011.3 994.8 +13.2
03 17.08 штиль 0 20 км 3/0
[Ci fib]
+20.0 +13.6 67 +22 +30 комфорт 1011.7 995.5
06 17.08 штиль 0 20 км 3/3 1000 м
[Cu hum]
+24.2 +12.3 47 +26 +37 жарко 1011.8 995.8
09 17.08 штиль 0 20 км 3/3 1000 м
[Cu hum Ac trans]
+24.7 +12.8 47 +27 +34 жарко 1011.8 995.9
12 17.08 штиль 0 20 км ясно +23.8 +11.9 47 +25 +27 комфорт 1012.2 996.2 +27.4
15 17.08 штиль 0 20 км ясно +17.7 +13.1 74 +18 +18 тепло 1013.6 997.2
18 17.08 С 1 20 км ясно +16.5 +13.2 81 +17 +17 тепло 1013.9 997.5
21 17.08 СВ 1 20 км ясно +14.5 +12.9 90 +15 +15 тепло 1013.7 997.1
00 18.08 СВ 1 20 км ясно +13.2 +12.4 95 +13 +14 по сезону 1014.2 997.6 +12.9
03 18.08 штиль 0 20 км 6/0
[Ci fib]
+19.9 +14.4 71 +22 +29 комфорт 1014.2 998.0
06 18.08 С 1 20 км 4/4 600 м
[Cu hum]
+24.9 +13.2 48 +27 +35 жарко 1013.4 997.5
09 18.08 СВ 1 10 км дым 4/4 600 м
[Cu hum]
+26.0 +10.5 38 +27 +32 жарко 1012.6 996.7
12 18.08 СЗ 1 10 км дым 4/4 600 м
[Cu hum]
+24.8 +11.2 42 +26 +27 жарко 1012.9 997.0 +26.7
15 18.08 штиль 0 20 км {ливн. осадки} 10/0
[Ac und Ci fib]
+18.1 +16.0 88 +18 +18 тепло 1014.3 997.9
18 18.08 штиль 0 20 км {ливн. осадки} 10/0
[Ci fib]
+15.4 +14.4 94 +15 +15 тепло 1014.4 997.9
21 18.08 штиль 0 20 км 6/0
[Ci fib]
+14.9 +14.0 94 +15 +15 тепло 1014.1 997.6
00 19.08 штиль 0 10 км дым 10/0
[As op]
+15.0 +14.2 95 +15 +15 тепло 1014.5 998.0 +14.6 0.0
03 19.08 штиль 0 10 км дым 10/0
[As trans]
+18.0 +14.5 80 +18 +21 тепло 1014.0 997.7
06 19.08 штиль 0 20 км слаб. ливневой дождь 10/5 600 м
[Cb cap Ac und]
+18.3 +15.2 82 +19 +21 по сезону 1014.7 998.4
09 19.08 штиль 0 20 км слаб. ливневой дождь 9/9 660 м
[Cb cap]
+17.9 +16.3 90 +18 +19 по сезону 1014.2 997.9
12 19.08 С 2 20 км в посл. час ливневой дождь 10/6 600 м
[Cb cap Ac und]
+16.0 +11.9 77 +16 +16 прохладно 1015.1 998.6 +20.5 0.7
15 19.08 штиль 0 20 км {ливн. осадки} 8/0
[Ac trans]
+13.4 +12.3 93 +13 +13 прохладно 1016.1 999.5
18 19.08 штиль 0 20 км {ливн. осадки} 8/0
[Ac As]
+13.3 +12.6 96 +13 +13 по сезону 1015.9 999.3
21 19.08 штиль 0 4000 м дымка 10/0
[Ac As Ci fib]
+11.2 +10.5 95 +10 +10 по сезону 1015.5 998.7

 

Местоположение метеостанции Томск (Томская область, Россия): широта 56.50 долгота 84.92 высота над уровнем моря 139 м.

В архиве по умолчанию представлена погода в Томске за последнюю неделю. Архивные данные за месяц целиком и за предыдущие месяцы, начиная с января 2011 года, Вы можете получить, выбрав интересующий диапазон дат из раскрывающегося списка и нажав кнопку "Ввод!".


*Определитесь, кто Вы:
робот инопланетянин человек

Внимание! Время в таблицах - всемирное. Для получения местного времени необходимо прибавить поправку, которая равна 7 ч.

Смотрите также архив погоды в соседних городах и на ближайших метеорологических станциях:

Погода в Тайге (Кемеровская область, Россия) (64 км)
Погода в Кожевниково (Томская область, Россия) (65 км)
Погода в Юрге (Кемеровская область, Россия) (87 км)
Погода в Болотном (Новосибирская область, Россия) (98 км)
Погода в Яе (Кемеровская область, Россия) (101 км)
Погода в Первомайском (Томская область, Россия) (101 км)
Погода в Барзасе (Кемеровская область, Россия) (122 км)
Погода в Молчаново (Томская область, Россия) (139 км)
Погода в Батурино (Томская область, Россия) (143 км)
Погода в Топках (Кемеровская область, Россия) (143 км)

Пояснения к столбцам:

Ветер - указаны скорость ветра в м/с - средняя за 10 мин, порывы в срок и между сроками (в фигурных скобках) и направление, откуда дует ветер: С - северный, СВ - северо-восточный, В - восточный, ЮВ - юго-восточный, Ю - южный, ЮЗ - юго-западный, З - западный, СЗ - северо-западный.
Видимость - горизонтальная дальность видимости в метрах или километрах. При видимости от 1 до 10 км при отсутствии осадков обычно наблюдается дымка, при ухудшении видимости до 1 км и менее - туман. В сухую погоду видимость может ухудшаться дымом, пылью или мглою.
Явления - указаны атмосферные явления, наблюдавшиеся в срок или в последний час перед сроком; фигурными скобками обозначены явления, наблюдавшиеся между сроками (за 1-3 часа до срока); квадратными скобками обозначены град или гололедные отложения с указанием их диаметра в мм.
Облачность - указаны через наклонную черту общая и нижняя облачность в баллах и высота нижней границы облаков в метрах; квадратными скобками обозначены формы облаков: Ci - перистые, Cs - перисто-слоистые, Cc - перисто-кучевые, Ac - высококучевые, As - высокослоистые, Sc - слоисто-кучевые, Ns - слоисто-дождевые, Cu - кучевые, Cb - кучево-дождевые. Подробнее классификацию облаков см. в Атласе облаков (PDF).
T - Температура воздуха - температура, измеренная на высоте 2 м над землей.
Td - Температура точки росы - температура, при понижении до которой содержащийся в воздухе водяной пар достигнет насыщения.
f - Относительная влажность воздуха - влажноcть воздуха, измеренная на высоте 2 м над землей.
Te - Эффективная температура - температура, которую ощущает одетый по сезону человек в тени. Характеристика душности погоды. При расчете учитывается влияние влажности воздуха и скорости ветра на теплоощущения человека.
Tes - Эффективная температура на солнце - температура, которую ощущает человек, с поправкой на солнечный нагрев. Характеристика знойности погоды. Зависит от высоты солнца над горизонтом, облачности и скорости ветра. Ночью, в пасмурную погоду, а также при ветре 12 м/с и более поправка равна нулю.
P - Атмосферное давление - приведенное к уровню моря атмосферное давление.
Po - Атмосферное давление - измеренное на уровне метеостанции атмосферное давление.
Tmin - Минимальная температура - минимум температуры воздуха на высоте 2 м над землей.
Tmax - Максимальная температура - максимум температуры воздуха на высоте 2 м над землей.
R - Количество осадков - Количество выпавших осадков за период времени, мм. При наведении курсора мыши на число - период времени, за который выпало указанное количество осадков.
R24 - Количество осадков - Количество выпавших осадков за 24 часа, мм.
S - Снежный покров - Высота снежного покрова, см. При наведении курсора мыши на число - состояние снежного покрова и степень покрытия местности в баллах.